Location: Newark
(41.6500°N, 71.4833°W)
Time: 10:55:22
(UTC+00:00)

deb Explorer IX - Pass Details

Date: 30 January 2020
Orbit: 549 x 1099 km, 38.8° (Epoch: 19 February)

Event Time Altitude Azimuth Distance (km) Brightness Sun altitude
Rises 04:15:49 0° 275° (W) 3,789 - -64.4°
Reaches altitude 10° 04:18:30 10° 272° (W) 2,883 - -64.6°
Maximum altitude 04:25:31 60° 195° (SSW) 1,242 - -65.1°
Drops below altitude 10° 04:32:38 10° 117° (ESE) 2,919 - -65.5°
Sets 04:35:21 0° 114° (ESE) 3,840 - -65.6°
